Location: B?jaj?g
(11.7167°N, 92.6667°E)
Time: 02:17:47
(UTC+00:00)

Cosmos 841 Rocket - Pass Details

Date: 18 September 2020
Orbit: 746 x 773 km, 74.0° (Epoch: 18 October)

Event Time Altitude Azimuth Distance (km) Brightness Sun altitude
Exits shadow 22:42:25 11° 221° (SW) 2,210 5.5 -14.6°
Maximum altitude 22:46:54 35° 285° (WNW) 1,214 4.0 -13.5°
Drops below altitude 10° 22:51:36 10° 350° (N) 2,285 5.9 -12.3°
Sets 22:54:10 0° 359° (N) 3,215 6.8 -11.7°
